Regional Weather Roundup
Issued by NWS

Home | Current Version | Previous Version | Text Only | Print | Product List | Glossary On
Versions: 1 2 3 4 5 6 7 8 9 10 11 12 13 14 15 16 17 18 19 20 21 22 23 24 25 26 27 28 29 30 31 32 33 34 35 36 37 38 39 40 41 42 43 44 45 46 47 48 49 50
000
ASUS43 KDMX 192307
RWRIA

WEATHER ROUNDUP FOR IOWA
NATIONAL WEATHER SERVICE DES MOINES IA
600 PM CDT TUE AUG 19 2014

NOTE: "FAIR" INDICATES FEW OR NO CLOUDS BELOW 12,000 FEET WITH NO
SIGNIFICANT WEATHER AND/OR OBSTRUCTIONS TO VISIBILITY.

* - THESE STATIONS ARE NOT NWS STATIONS...THUS NOT UNDER NWS
QUALITY CONTROL.  THEY ALSO DO NOT REPORT WEATHER SUCH
AS PRECIPITATION OR FOG.

IAZ001>003-012>014-020>022-031>034-043>046-200000-
   NORTHWEST IOWA

CITY           SKY/WX    TMP DP  RH WIND       PRES   REMARKS
CARROLL *      SUNNY     81  66  61 N5        29.80S HX  83
CHEROKEE *     SUNNY     81  64  57 W3        29.80S HX  82
DENISON *      SUNNY     82  63  51 N5        29.79S HX  83
LE MARS *      SUNNY     82  64  54 CALM      29.80S HX  84
ORANGE CITY *  SUNNY     82  61  47 CALM      29.80F HX  83
SHELDON *      SUNNY     81  66  61 VRB3      29.79F HX  83
SIOUX CITY     SUNNY     85  65  51 SW3       29.78F HX  86
SPENCER        SUNNY     82  66  58 W6        29.80S HX  84
STORM LAKE *   SUNNY     79  68  69 NW5       29.82S HX  81
$$

IAZ055>058-069>071-079>083-090>094-200000-
   SOUTHWEST IOWA

CITY           SKY/WX    TMP DP  RH WIND       PRES   REMARKS
ATLANTIC *     SUNNY     82  66  57 SW5       29.80R HX  85
AUDUBON *      SUNNY     84  70  61 CALM      29.82R HX  88
CLARINDA *     SUNNY     86  70  58 SW5       29.82S HX  90
COUNCIL BLFS * SUNNY     84  66  54 SE6       29.80S HX  86
CRESTON *      SUNNY     82  66  57 CALM      29.83R HX  85
HARLAN  *      SUNNY     82  64  54 CALM      29.84R HX  84
LAMONI         SUNNY     83  68  60 W3        29.81R HX  86
RED OAK *      SUNNY     86  66  51 S6        29.81S HX  88
SHENANDOAH *   SUNNY     86  70  58 S3        29.80F HX  90
$$

IAZ047>049-059>061-072>074-084-200000-
   CENTRAL IOWA

CITY           SKY/WX    TMP DP  RH WIND       PRES   REMARKS
AMES           MOSUNNY   82  64  54 NW6       29.79S HX  83
ANKENY *       SUNNY     82  64  54 NW7       29.78S HX  84
CHARITON *     SUNNY     82  68  61 W5        29.80S HX  85
DES MOINES     MOSUNNY   85  63  47 CALM      29.78S HX  86
GRINNELL*      SUNNY     81  64  57 NW6       29.80S HX  82
KNOXVILLE *    SUNNY     82  66  57 W6        29.78S HX  85
MARSHALLTOWN   SUNNY     82  64  54 W7        29.78S HX  83
PELLA *        SUNNY     84  64  51 NW3       29.80S HX  86
PERRY *          N/A     82  66  57 NW3       29.80S HX  85
$$

IAZ004>006-015-016-023>025-035-036-200000-
   NORTH CENTRAL IOWA

CITY           SKY/WX    TMP DP  RH WIND       PRES   REMARKS
ALGONA *       SUNNY     82  64  54 W9G15     29.79S HX  84
CLARION *      MOSUNNY   82  64  54 W7        29.79S HX  84
ESTHERVILLE    MOSUNNY   81  64  56 W9        29.78F HX  82
FORT DODGE *   SUNNY     81  64  57 W7        29.80S HX  82
MASON CITY     CLOUDY    79  66  64 NE5       29.79S HX  81
FOREST CITY *  MOSUNNY   81  63  54 W9        29.79R HX  82
IOWA FALLS *     N/A     82  63  51 W8        29.80S HX  83
$$

IAZ007>011-017>019-026>030-037>042-050>054-066-200000-
   NORTHEAST IOWA

CITY           SKY/WX    TMP DP  RH WIND       PRES   REMARKS
CEDAR RAPIDS   MOSUNNY   82  64  54 NW10      29.77S HX  83
CHARLES CITY * SUNNY     79  64  61 W8G15     29.79R HX  81
CLINTON *      MOSUNNY   82  63  51 NW13      29.77S HX  83
DECORAH *      MOSUNNY   77  63  61 CALM      29.76S
DUBUQUE        SUNNY     80  60  50 W14       29.77R HX  81
MONTICELLO *   SUNNY     82  63  51 NW15      29.76S HX  83
OELWEIN *      SUNNY     79  63  57 NW10      29.79R HX  80
WATERLOO       MOSUNNY   81  62  52 W9        29.77R HX  82
$$

IAZ064-065-067-068-078-200000-
   EAST CENTRAL IOWA

CITY           SKY/WX    TMP DP  RH WIND       PRES   REMARKS
DAVENPORT      MOSUNNY   82  63  52 W12       29.76S HX  83
IOWA CITY      SUNNY     84  64  50 W14       29.78R HX  85
MT. PLEASANT * SUNNY     86  57  37 W10       29.77S HX  85
MUSCATINE *    SUNNY     86  63  45 W13       29.76S HX  87
QUAD CITIES    SUNNY     85  63  47 W13       29.74S HX  86
$$

IAZ062-063-075>077-085>089-095>099-200000-
   SOUTHEAST IOWA

CITY           SKY/WX    TMP DP  RH WIND       PRES   REMARKS
BURLINGTON     LGT RAIN  84  68  58 W8        29.77R HX  87
FAIRFIELD *    SUNNY     82  64  54 NW9       29.78S HX  84
FORT MADISON * SUNNY     84  70  61 W8        29.78S HX  88
KEOKUK *       SUNNY     84  75  74 W6        29.76F HX  92
OSKALOOSA *      N/A     82  64  54 W7        29.79S HX  84
CENTERVILLE *  SUNNY     82  68  61 NW3       29.81S HX  85
OTTUMWA        SUNNY     84  66  54 NW8       29.78F HX  86
WASHINGTON *   SUNNY     82  66  57 NW9       29.78S HX  85
$$

ABBREVIATIONS USED IN REMARKS
   TC - TEMPERATURES IN CELSIUS
  WCI - WIND CHILL INDEX
   HX - HEAT INDEX
  VSB - VISIBILITY
$$



USA.gov is the U.S. government's official web portal to all federal, state and local government web resources and services.